Location: Unspecified
(0.0000°N, 0.0000°E)
Time: 06:36:40
(UTC+00:00)

S-56A Canister/Altair - Pass Details

Date: 16 December 2018
Orbit: 633 x 2499 km, 38.9° (Epoch: 16 June)

Event Time Altitude Azimuth Distance (km) Brightness Sun altitude
Rises 13:16:39 0° 280° (W) 5,872 12.2 59.5°
Reaches altitude 10° 13:22:16 10° 266° (W) 4,588 12.0 58.6°
Maximum altitude 13:30:19 20° 224° (SW) 3,316 11.8 57.2°
Drops below altitude 10° 13:36:45 10° 181° (S) 3,540 11.4 56.1°
Sets 13:40:23 0° 163° (SSE) 4,198 11.5 55.5°
